Time,TemperatureF,DewpointF,PressureIn,WindDirection,WindDirectionDegrees,WindSpeedMPH,WindSpeedGustMPH,Humidity,HourlyPrecipIn,Conditions,Clouds,dailyrainin,SoftwareType,DateUTC
2013-09-11 00:23:00,78.0,61.0,30.06,South,181,3.0,9.0,55,0.00,,,0.00,,2013-09-11 05:23:00,
2013-09-11 00:53:00,78.0,60.0,30.06,SW,221,3.0,8.0,54,0.00,,,0.00,,2013-09-11 05:53:00,
2013-09-11 01:22:00,78.0,59.0,30.06,SSW,211,5.0,10.0,53,0.00,,,0.00,,2013-09-11 06:22:00,
2013-09-11 01:42:00,78.0,60.0,30.07,SW,219,3.0,7.0,54,0.00,,,0.00,,2013-09-11 06:42:00,
2013-09-11 01:52:00,77.0,60.0,30.09,WNW,298,4.0,8.0,55,0.00,,,0.00,,2013-09-11 06:52:00,
2013-09-11 02:23:00,77.0,61.0,30.10,WNW,290,3.0,6.0,58,0.00,,,0.00,,2013-09-11 07:23:00,
2013-09-11 02:52:00,75.0,62.0,30.10,West,277,1.0,4.0,63,0.00,,,0.00,,2013-09-11 07:52:00,
2013-09-11 03:22:00,74.0,63.0,30.10,West,274,2.0,5.0,68,0.00,,,0.00,,2013-09-11 08:22:00,
2013-09-11 03:52:00,74.0,63.0,30.11,West,277,0.0,4.0,69,0.00,,,0.00,,2013-09-11 08:52:00,
2013-09-11 04:21:00,71.0,66.0,30.11,West,277,0.0,2.0,83,0.05,,,0.05,,2013-09-11 09:21:00,
2013-09-11 04:53:00,70.0,66.0,30.11,SE,125,1.0,3.0,87,0.05,,,0.05,,2013-09-11 09:53:00,
2013-09-11 05:23:00,69.0,66.0,30.11,SE,140,1.0,2.0,89,0.00,,,0.05,,2013-09-11 10:23:00,
2013-09-11 05:53:00,68.0,66.0,30.11,SE,140,0.0,0.0,92,0.00,,,0.05,,2013-09-11 10:53:00,
2013-09-11 06:21:00,67.0,65.0,30.10,SE,140,0.0,1.0,94,0.00,,,0.05,,2013-09-11 11:21:00,
2013-09-11 06:52:00,67.0,64.0,30.10,South,182,0.0,3.0,90,0.00,,,0.05,,2013-09-11 11:52:00,
2013-09-11 07:21:00,68.0,63.0,30.11,South,186,0.0,1.0,84,0.00,,,0.05,,2013-09-11 12:21:00,
2013-09-11 07:52:00,68.0,63.0,30.11,South,171,1.0,2.0,84,0.00,,,0.05,,2013-09-11 12:52:00,
2013-09-11 08:22:00,70.0,64.0,30.11,SSW,194,0.0,3.0,81,0.00,,,0.05,,2013-09-11 13:22:00,
2013-09-11 08:52:00,73.0,66.0,30.13,WSW,253,0.0,3.0,79,0.00,,,0.05,,2013-09-11 13:52:00,
2013-09-11 09:22:00,75.0,67.0,30.13,SW,222,0.0,2.0,75,0.00,,,0.05,,2013-09-11 14:22:00,
2013-09-11 09:52:00,77.0,66.0,30.12,SSW,212,2.0,6.0,69,0.00,,,0.05,,2013-09-11 14:52:00,
2013-09-11 10:22:00,80.0,66.0,30.12,SSW,213,3.0,8.0,63,0.00,,,0.05,,2013-09-11 15:22:00,
2013-09-11 10:54:00,82.0,67.0,30.13,SW,223,3.0,6.0,61,0.00,,,0.05,,2013-09-11 15:54:00,
2013-09-11 11:13:00,83.0,67.0,30.12,West,263,4.0,7.0,59,0.00,,,0.05,,2013-09-11 16:13:00,
2013-09-11 11:23:00,84.0,68.0,30.13,West,265,5.0,9.0,59,0.00,,,0.05,,2013-09-11 16:23:00,
2013-09-11 11:53:00,86.0,69.0,30.13,WNW,285,5.0,10.0,57,0.00,,,0.05,,2013-09-11 16:53:00,
2013-09-11 12:23:00,87.0,69.0,30.12,West,270,5.0,14.0,56,0.00,,,0.05,,2013-09-11 17:23:00,
2013-09-11 12:52:00,89.0,70.0,30.11,West,259,3.0,10.0,54,0.00,,,0.05,,2013-09-11 17:52:00,
2013-09-11 13:12:00,89.0,71.0,30.11,West,279,5.0,9.0,56,0.00,,,0.05,,2013-09-11 18:12:00,
2013-09-11 13:22:00,90.0,71.0,30.11,West,261,3.0,8.0,53,0.00,,,0.05,,2013-09-11 18:22:00,
2013-09-11 13:52:00,90.0,68.0,30.11,West,272,2.0,10.0,49,0.00,,,0.05,,2013-09-11 18:52:00,
2013-09-11 14:11:00,90.0,69.0,30.10,West,269,1.0,8.0,51,0.00,,,0.05,,2013-09-11 19:11:00,
2013-09-11 14:22:00,90.0,70.0,30.09,WSW,238,2.0,8.0,52,0.00,,,0.05,,2013-09-11 19:22:00,
2013-09-11 14:53:00,92.0,69.0,30.09,NW,304,3.0,7.0,48,0.00,,,0.05,,2013-09-11 19:53:00,
2013-09-11 15:12:00,92.0,70.0,30.08,South,191,2.0,7.0,49,0.00,,,0.05,,2013-09-11 20:12:00,
2013-09-11 15:21:00,91.0,67.0,30.07,WSW,245,2.0,8.0,46,0.00,,,0.05,,2013-09-11 20:21:00,
2013-09-11 15:52:00,90.0,68.0,30.06,SW,232,1.0,8.0,48,0.00,,,0.05,,2013-09-11 20:52:00,
2013-09-11 16:22:00,91.0,67.0,30.05,South,174,1.0,2.0,46,0.00,,,0.05,,2013-09-11 21:22:00,
2013-09-11 16:54:00,89.0,68.0,30.05,NE,54,7.0,13.0,51,0.00,,,0.05,,2013-09-11 21:54:00,
2013-09-11 17:13:00,86.0,70.0,30.06,ENE,63,4.0,11.0,59,0.00,,,0.05,,2013-09-11 22:13:00,
2013-09-11 19:21:00,73.0,71.0,30.12,SW,219,0.0,10.0,93,0.12,,,0.33,,2013-09-12 00:21:00,
2013-09-11 19:42:00,73.0,71.0,30.10,ENE,66,1.0,3.0,93,0.12,,,0.38,,2013-09-12 00:42:00,
2013-09-11 19:52:00,72.0,70.0,30.10,East,82,4.0,7.0,94,0.13,,,0.40,,2013-09-12 00:52:00,
2013-09-11 20:22:00,72.0,70.0,30.10,ESE,105,4.0,9.0,94,0.08,,,0.41,,2013-09-12 01:22:00,
2013-09-11 20:42:00,72.0,70.0,30.09,East,86,2.0,7.0,94,0.03,,,0.41,,2013-09-12 01:42:00,
2013-09-11 20:52:00,71.0,69.0,30.10,SE,126,0.0,2.0,94,0.01,,,0.41,,2013-09-12 01:52:00,
2013-09-11 21:12:00,71.0,69.0,30.13,SE,127,0.0,1.0,94,0.01,,,0.41,,2013-09-12 02:12:00,
2013-09-11 21:22:00,71.0,69.0,30.13,SSE,155,0.0,1.0,94,0.01,,,0.42,,2013-09-12 02:22:00,
2013-09-11 22:22:00,70.0,68.0,30.16,West,268,0.0,0.0,95,0.00,,,0.42,,2013-09-12 03:22:00,
2013-09-11 22:55:00,70.0,69.0,30.17,WNW,285,0.0,3.0,96,0.03,,,0.45,,2013-09-12 03:55:00,
2013-09-11 23:24:00,70.0,69.0,30.17,SSW,206,0.0,6.0,96,0.06,,,0.48,,2013-09-12 04:24:00,
2013-09-11 23:54:00,70.0,69.0,30.17,South,178,0.0,5.0,96,0.04,,,0.49,,2013-09-12 04:54:00,